Location: Mercogliano
(40.9167°N, 14.7333°E)
Time: 13:51:31
(UTC+00:00)

CZ-2C R/B - Visible Passes

Search period start: 18 January 2021 00:00
Search period end: 28 January 2021 00:00
Orbit: 705 x 907 km, 98.1° (Epoch: 17 January)

Date Brightness Start Highest point End Pass type
(mag) Time Alt. Az. Time Alt. Az. Time Alt. Az.
18 Jan 3.0 17:17:21 10° SSE 17:22:30 77° ENE 17:27:59 10° N visible
18 Jan 6.1 19:00:48 10° WSW 19:03:03 13° W 19:05:22 10° WNW visible
19 Jan 5.2 05:32:49 10° NNE 05:38:07 35° E 05:43:20 10° SSE visible
19 Jan 3.4 16:52:46 10° SE 16:57:44 46° ENE 17:02:58 10° N visible
19 Jan 5.5 18:33:50 10° SW 18:37:51 22° W 18:42:01 10° NW visible
20 Jan 6.0 05:08:38 10° NE 05:13:02 22° E 05:17:23 10° SE visible
20 Jan 4.0 16:28:36 10° SE 16:33:03 29° ENE 16:37:44 10° N visible
20 Jan 4.6 18:07:55 10° SSW 18:12:43 37° W 18:17:49 10° NNW visible
21 Jan 6.4 04:45:19 10° ENE 04:47:51 13° E 04:50:23 10° ESE visible
21 Jan 3.6 17:42:33 10° S 17:47:44 63° W 17:53:15 10° NNW visible
22 Jan 3.1 17:17:35 10° SSE 17:22:51 79° ENE 17:28:26 10° N visible
22 Jan 6.2 19:01:07 10° WSW 19:03:25 13° W 19:05:46 10° WNW visible
23 Jan 5.1 05:33:12 10° NNE 05:38:32 36° E 05:43:44 10° SSE visible
23 Jan 3.4 16:52:59 10° SE 16:58:04 48° ENE 17:03:27 10° N visible
23 Jan 5.5 18:34:08 10° SW 18:38:12 22° W 18:42:26 10° NW visible
24 Jan 6.0 05:09:01 10° NE 05:13:27 22° E 05:17:48 10° SE visible
24 Jan 4.0 16:28:47 10° SE 16:33:24 30° ENE 16:38:14 10° N visible
24 Jan 4.7 18:08:12 10° SSW 18:13:05 37° W 18:18:15 10° NNW visible
25 Jan 6.4 04:45:38 10° ENE 04:48:16 13° E 04:50:52 10° ESE visible
25 Jan 3.7 17:42:49 10° S 17:48:06 61° W 17:53:42 10° NNW visible
26 Jan 3.1 17:17:50 10° SSE 17:23:12 82° ENE 17:28:54 10° N visible
26 Jan 6.2 19:01:27 10° WSW 19:03:47 13° W 19:06:10 10° WNW visible
27 Jan 5.1 05:33:37 10° NNE 05:38:57 37° E 05:44:05 10° SSE visible
27 Jan 3.4 16:53:13 10° SE 16:58:26 50° ENE 17:03:55 10° N visible
27 Jan 5.6 18:34:27 10° SW 18:38:34 22° W 18:42:52 10° NW visible
